TimeCDT,TemperatureF,Dew PointF,Humidity,Sea Level PressureIn,VisibilityMPH,Wind Direction,Wind SpeedMPH,Gust SpeedMPH,PrecipitationIn,Events,Conditions,WindDirDegrees,DateUTC
12:07 AM,53.6,51.8,94,30.05,10.0,Calm,Calm,-,N/A,,Clear,0,2013-09-03 05:07:00
12:15 AM,53.1,51.8,95,30.05,10.0,Calm,Calm,-,N/A,,Clear,0,2013-09-03 05:15:00
12:26 AM,53.6,51.8,94,30.05,10.0,Calm,Calm,-,N/A,,Clear,0,2013-09-03 05:26:00
12:35 AM,53.1,51.8,95,30.06,10.0,Calm,Calm,-,N/A,,Clear,0,2013-09-03 05:35:00
12:47 AM,53.6,51.8,94,30.06,7.0,Calm,Calm,-,N/A,,Clear,0,2013-09-03 05:47:00
12:55 AM,52.7,51.3,95,30.05,7.0,Calm,Calm,-,N/A,,Clear,0,2013-09-03 05:55:00
1:07 AM,53.6,51.8,94,30.05,10.0,Calm,Calm,-,N/A,,Clear,0,2013-09-03 06:07:00
1:15 AM,52.0,50.5,95,30.05,10.0,Calm,Calm,-,N/A,,Clear,0,2013-09-03 06:15:00
1:27 AM,51.8,51.8,100,30.05,7.0,Calm,Calm,-,N/A,,Clear,0,2013-09-03 06:27:00
1:35 AM,52.0,50.9,96,30.06,10.0,Calm,Calm,-,N/A,,Clear,0,2013-09-03 06:35:00
1:55 AM,52.2,51.1,96,30.05,10.0,Calm,Calm,-,N/A,,Clear,0,2013-09-03 06:55:00
2:07 AM,51.8,51.8,100,30.06,10.0,Calm,Calm,-,N/A,,Clear,0,2013-09-03 07:07:00
2:15 AM,51.1,50.0,96,30.06,10.0,Calm,Calm,-,N/A,,Clear,0,2013-09-03 07:15:00
2:35 AM,51.8,50.5,95,30.06,10.0,Calm,Calm,-,N/A,,Clear,0,2013-09-03 07:35:00
2:47 AM,51.8,51.8,100,30.06,10.0,Calm,Calm,-,N/A,,Clear,0,2013-09-03 07:47:00
2:55 AM,52.0,50.9,96,30.06,10.0,Calm,Calm,-,N/A,,Clear,0,2013-09-03 07:55:00
3:07 AM,51.8,50.0,94,30.07,10.0,Calm,Calm,-,N/A,,Clear,0,2013-09-03 08:07:00
3:15 AM,51.6,50.5,96,30.07,10.0,Calm,Calm,-,N/A,,Clear,0,2013-09-03 08:15:00
3:27 AM,51.8,51.8,100,30.07,10.0,Calm,Calm,-,N/A,,Clear,0,2013-09-03 08:27:00
3:55 AM,51.3,50.0,95,30.07,10.0,Calm,Calm,-,N/A,,Clear,0,2013-09-03 08:55:00
4:07 AM,51.8,50.0,94,30.07,10.0,Calm,Calm,-,N/A,,Clear,0,2013-09-03 09:07:00
4:15 AM,50.9,50.0,97,30.07,10.0,Calm,Calm,-,N/A,,Clear,0,2013-09-03 09:15:00
4:27 AM,51.8,50.0,94,30.07,10.0,Calm,Calm,-,N/A,,Clear,0,2013-09-03 09:27:00
4:35 AM,50.9,50.0,97,30.07,10.0,Calm,Calm,-,N/A,,Clear,0,2013-09-03 09:35:00
4:47 AM,51.8,50.0,94,30.07,10.0,Calm,Calm,-,N/A,,Clear,0,2013-09-03 09:47:00
4:55 AM,50.7,49.6,96,30.08,10.0,Calm,Calm,-,N/A,,Clear,0,2013-09-03 09:55:00
5:06 AM,51.8,50.0,94,30.08,10.0,Calm,Calm,-,N/A,,Clear,0,2013-09-03 10:06:00
5:15 AM,51.1,50.0,96,30.08,10.0,Calm,Calm,-,N/A,,Clear,0,2013-09-03 10:15:00
5:26 AM,50.0,48.2,94,30.07,10.0,Calm,Calm,-,N/A,,Clear,0,2013-09-03 10:26:00
5:35 AM,50.7,49.8,97,30.08,10.0,Calm,Calm,-,N/A,,Clear,0,2013-09-03 10:35:00
5:55 AM,50.9,50.0,97,30.08,10.0,Calm,Calm,-,N/A,,Clear,0,2013-09-03 10:55:00
6:06 AM,50.0,48.2,94,30.08,10.0,Calm,Calm,-,N/A,,Clear,0,2013-09-03 11:06:00
6:15 AM,50.4,49.3,96,30.08,10.0,Calm,Calm,-,N/A,,Clear,0,2013-09-03 11:15:00
6:35 AM,50.2,49.1,96,30.08,10.0,Calm,Calm,-,N/A,,Clear,0,2013-09-03 11:35:00
6:55 AM,50.0,49.1,97,30.08,7.0,Calm,Calm,-,N/A,,Clear,0,2013-09-03 11:55:00
7:15 AM,50.2,49.3,97,30.08,7.0,Calm,Calm,-,N/A,,Clear,0,2013-09-03 12:15:00
7:35 AM,51.4,50.7,97,30.09,7.0,Calm,Calm,-,N/A,,Clear,0,2013-09-03 12:35:00
7:55 AM,53.6,52.9,97,30.09,7.0,Calm,Calm,-,N/A,,Clear,0,2013-09-03 12:55:00
8:15 AM,56.7,55.6,96,30.09,7.0,Calm,Calm,-,N/A,,Clear,0,2013-09-03 13:15:00
8:35 AM,60.3,58.3,93,30.09,7.0,SSE,4.6,-,N/A,,Clear,160,2013-09-03 13:35:00
8:55 AM,62.6,59.4,89,30.09,7.0,South,4.6,-,N/A,,Clear,170,2013-09-03 13:55:00
9:15 AM,64.9,59.9,84,30.08,10.0,South,10.4,-,N/A,,Clear,170,2013-09-03 14:15:00
9:35 AM,66.6,60.8,82,30.09,10.0,South,8.1,-,N/A,,Clear,170,2013-09-03 14:35:00
9:55 AM,68.4,61.2,78,30.08,10.0,South,9.2,-,N/A,,Clear,170,2013-09-03 14:55:00
10:15 AM,70.0,62.1,76,30.08,10.0,South,6.9,-,N/A,,Clear,180,2013-09-03 15:15:00
10:35 AM,71.6,62.6,73,30.09,7.0,South,6.9,-,N/A,,Clear,180,2013-09-03 15:35:00
10:55 AM,72.9,62.8,71,30.08,5.0,South,9.2,-,N/A,,Haze,190,2013-09-03 15:55:00
11:15 AM,74.1,63.7,70,30.08,10.0,South,9.2,-,N/A,,Clear,180,2013-09-03 16:15:00
11:35 AM,75.6,63.7,66,30.08,10.0,South,11.5,-,N/A,,Clear,190,2013-09-03 16:35:00
11:55 AM,77.4,64.2,64,30.07,5.0,South,11.5,-,N/A,,Haze,190,2013-09-03 16:55:00
12:15 PM,78.3,64.4,62,30.07,7.0,South,10.4,17.3,N/A,,Clear,190,2013-09-03 17:15:00
12:35 PM,79.2,64.4,60,30.06,7.0,South,9.2,-,N/A,,Clear,170,2013-09-03 17:35:00
12:55 PM,80.2,65.1,60,30.06,10.0,South,10.4,-,N/A,,Clear,180,2013-09-03 17:55:00
1:15 PM,80.8,64.8,58,30.06,5.0,South,12.7,-,N/A,,Haze,190,2013-09-03 18:15:00
1:35 PM,81.5,64.6,56,30.05,5.0,South,10.4,17.3,N/A,,Haze,180,2013-09-03 18:35:00
1:55 PM,81.9,64.6,56,30.05,5.0,South,11.5,-,N/A,,Haze,180,2013-09-03 18:55:00
2:15 PM,82.4,64.6,55,30.04,5.0,South,11.5,18.4,N/A,,Haze,180,2013-09-03 19:15:00
2:35 PM,83.1,64.0,52,30.04,7.0,South,11.5,-,N/A,,Clear,180,2013-09-03 19:35:00
2:55 PM,83.8,64.8,52,30.03,4.0,South,12.7,-,N/A,,Haze,170,2013-09-03 19:55:00
3:15 PM,82.2,63.3,53,30.03,5.0,South,13.8,-,N/A,,Haze,180,2013-09-03 20:15:00
3:35 PM,84.4,63.7,50,30.02,5.0,South,16.1,20.7,N/A,,Haze,170,2013-09-03 20:35:00
3:55 PM,84.2,64.6,52,30.02,5.0,South,11.5,16.1,N/A,,Haze,180,2013-09-03 20:55:00
4:15 PM,81.7,64.8,56,30.02,5.0,South,9.2,-,N/A,,Haze,180,2013-09-03 21:15:00
4:35 PM,80.8,65.1,59,30.02,5.0,South,6.9,-,N/A,,Haze,180,2013-09-03 21:35:00
4:55 PM,80.8,65.1,59,30.02,5.0,South,9.2,-,N/A,,Haze,190,2013-09-03 21:55:00
5:15 PM,80.1,66.0,62,30.02,5.0,South,6.9,-,N/A,,Haze,190,2013-09-03 22:15:00
5:35 PM,80.1,66.4,63,30.03,7.0,South,5.8,-,N/A,,Clear,190,2013-09-03 22:35:00
5:55 PM,79.5,66.7,65,30.02,5.0,South,6.9,-,N/A,,Haze,190,2013-09-03 22:55:00
6:15 PM,79.0,67.6,68,30.02,7.0,South,4.6,-,N/A,,Clear,190,2013-09-03 23:15:00
6:35 PM,76.6,68.4,75,30.02,5.0,South,5.8,-,N/A,,Haze,180,2013-09-03 23:35:00
6:55 PM,76.1,68.2,76,30.01,5.0,South,4.6,-,N/A,,Haze,170,2013-09-03 23:55:00
7:15 PM,75.4,68.2,78,30.00,7.0,South,5.8,-,N/A,,Clear,180,2013-09-04 00:15:00
7:35 PM,75.2,68.0,78,30.01,5.0,South,4.6,-,N/A,,Haze,180,2013-09-04 00:35:00
7:55 PM,74.5,68.0,80,30.01,7.0,SSE,3.5,-,N/A,Rain,Rain,160,2013-09-04 00:55:00
8:15 PM,74.3,67.5,79,30.01,5.0,SSE,4.6,-,N/A,Rain,Heavy Rain,150,2013-09-04 01:15:00
8:35 PM,72.7,67.1,83,30.02,7.0,SSE,4.6,-,N/A,Rain,Heavy Rain,150,2013-09-04 01:35:00
8:55 PM,72.0,66.2,82,30.02,7.0,SSE,5.8,-,N/A,Rain,Rain,150,2013-09-04 01:55:00
9:15 PM,73.4,65.7,77,30.02,10.0,SSE,6.9,-,N/A,Rain,Rain,150,2013-09-04 02:15:00
9:35 PM,70.9,65.7,83,30.03,7.0,SSE,5.8,-,N/A,Rain,Heavy Rain,160,2013-09-04 02:35:00
9:55 PM,69.3,65.7,88,30.02,7.0,SSE,6.9,-,N/A,Rain,Heavy Rain,160,2013-09-04 02:55:00
10:15 PM,70.3,65.8,86,30.03,7.0,South,4.6,-,N/A,Rain,Heavy Rain,170,2013-09-04 03:15:00
10:35 PM,69.1,65.3,88,30.03,7.0,South,4.6,-,N/A,Rain,Heavy Rain,170,2013-09-04 03:35:00
10:55 PM,68.9,65.3,88,30.03,7.0,SSW,4.6,-,N/A,Rain,Heavy Rain,200,2013-09-04 03:55:00
11:15 PM,69.4,64.8,85,30.03,7.0,SSW,4.6,-,N/A,Rain,Heavy Rain,200,2013-09-04 04:15:00
11:35 PM,69.4,64.4,84,30.03,7.0,South,4.6,-,N/A,Rain,Heavy Rain,190,2013-09-04 04:35:00
11:55 PM,68.9,64.8,87,30.03,7.0,South,4.6,-,N/A,Rain,Rain,180,2013-09-04 04:55:00